This is the latest recevied weather packets stored in our database for station/object HA9MJ-10. If no packets are shown the sender has not sent any weather packets the latest 10 day(s).
| Time | Temp. | Humidity | Pressure | Rain* | Wind** | Luminosity | Snow |
|---|---|---|---|---|---|---|---|
| 1777726263 | 20° C | 35% | 1021.7 hPa | - | - | - | - |
| 1777719902 | 20° C | 33% | 1022.9 hPa | - | - | - | - |
| 1777716302 | 19.44° C | 38% | 1023.3 hPa | - | - | - | - |
| 1777712701 | 19.44° C | 42% | 1023.9 hPa | - | - | - | - |
| 1777709105 | 20° C | 43% | 1024.2 hPa | - | - | - | - |
| 1777705505 | 19.44° C | 42% | 1024.5 hPa | - | - | - | - |
| 1777701904 | 19.44° C | 42% | 1024.5 hPa | - | - | - | - |
| 1777698304 | 18.89° C | 42% | 1024.3 hPa | - | - | - | - |
| 1777694704 | 18.89° C | 42% | 1024.1 hPa | - | - | - | - |
| 1777691104 | 18.89° C | 42% | 1023.8 hPa | - | - | - | - |
| 1777687504 | 18.89° C | 43% | 1023.9 hPa | - | - | - | - |
| 1777683904 | 18.89° C | 42% | 1024.1 hPa | - | - | - | - |
| 1777680303 | 18.89° C | 42% | 1024.3 hPa | - | - | - | - |
| 1777676703 | 18.89° C | 43% | 1024.5 hPa | - | - | - | - |
| 1777673103 | 18.89° C | 42% | 1024.7 hPa | - | - | - | - |
| 1777669503 | 18.89° C | 42% | 1024.5 hPa | - | - | - | - |
| 1777665903 | 18.89° C | 42% | 1024.5 hPa | - | - | - | - |
| 1777662303 | 18.89° C | 42% | 1024.4 hPa | - | - | - | - |
| 1777658703 | 18.89° C | 42% | 1024.2 hPa | - | - | - | - |
| 1777655102 | 18.89° C | 42% | 1024 hPa | - | - | - | - |
| 1777651502 | 18.89° C | 42% | 1024.2 hPa | - | - | - | - |
| 1777647902 | 18.89° C | 42% | 1024.5 hPa | - | - | - | - |
| 1777644302 | 18.89° C | 42% | 1024.8 hPa | - | - | - | - |
| 1777640702 | 19.44° C | 42% | 1025.3 hPa | - | - | - | - |
| 1777637102 | 19.44° C | 42% | 1025.9 hPa | - | - | - | - |
* Rain since midnight (hover to see other rain measurements)
** Current wind speed in m/s (hover to see current wind gust speed)